This is the latest recevied weather packets stored in our database for station/object W5GMO. If no packets are shown the sender has not sent any weather packets the latest 1 day(s).
| Time | Temp. | Humidity | Pressure | Rain* | Wind** | Luminosity | Snow |
|---|---|---|---|---|---|---|---|
| 1778069550 | 18.33° C | 73% | 1010.7 hPa | 0 mm | - | 36 W/m² | - |
| 1778068643 | 18.89° C | 72% | 1010.7 hPa | 0 mm | - | 30 W/m² | - |
| 1778068341 | 18.89° C | 72% | 1010.7 hPa | 0 mm | - | 42 W/m² | - |
| 1778067736 | 18.89° C | 72% | 1010.6 hPa | 0 mm | - | 34 W/m² | - |
| 1778065315 | 18.89° C | 68% | 1010.3 hPa | 0 mm | - | 51 W/m² | - |
| 1778064708 | 18.89° C | 68% | 1010 hPa | 0 mm | - | 53 W/m² | - |
| 1778062286 | 19.44° C | 67% | 1010 hPa | 0 mm | - | 3 W/m² | - |
| 1778061985 | 19.44° C | 67% | 1009.6 hPa | 0 mm | - | 2 W/m² | - |
| 1778061381 | 19.44° C | 67% | 1009.6 hPa | 0 mm | - | 0 W/m² | - |
| 1778061077 | 19.44° C | 67% | 1009.8 hPa | 0 mm | - | 0 W/m² | - |
| 1778059262 | 19.44° C | 66% | 1009.8 hPa | 0 mm | - | 0 W/m² | - |
| 1778058355 | 19.44° C | 66% | 1009.9 hPa | 0 mm | - | 0 W/m² | - |
| 1778058051 | 19.44° C | 65% | 1010 hPa | 0 mm | - | 0 W/m² | - |
| 1778057748 | 20° C | 65% | 1009.9 hPa | 0 mm | - | 0 W/m² | - |
| 1778056535 | 20° C | 64% | 1010.1 hPa | 0 mm | - | 0 W/m² | - |
| 1778055929 | 20° C | 63% | 1009.9 hPa | 0 mm | - | 0 W/m² | - |
| 1778055625 | 20° C | 63% | 1009.9 hPa | 0 mm | - | 0 W/m² | - |
| 1778055323 | 20° C | 62% | 1009.9 hPa | 0 mm | - | 0 W/m² | - |
| 1778055020 | 20.56° C | 62% | 1010.1 hPa | 0 mm | - | 0 W/m² | - |
| 1778054415 | 20.56° C | 60% | 1010 hPa | 0 mm | - | 0 W/m² | - |
| 1778054112 | 20.56° C | 60% | 1009.9 hPa | 0 mm | - | 0 W/m² | - |
| 1778053809 | 20.56° C | 60% | 1009.8 hPa | 0 mm | - | 0 W/m² | - |
| 1778052901 | 20.56° C | 59% | 1009.9 hPa | 0 mm | - | 0 W/m² | - |
| 1778052598 | 21.11° C | 58% | 1009.8 hPa | 0 mm | - | 0 W/m² | - |
| 1778052295 | 21.11° C | 58% | 1009.8 hPa | 0 mm | - | 0 W/m² | - |
* Rain latest hour (hover to see other rain measurements)
** Current wind speed in m/s (hover to see current wind gust speed)